Location: Unspecified
(40.7945°N, 111.1337°W)
Time: 17:26:06
(UTC-06:00)

Altair - Pass Details

Date: 29 June 2019
Orbit: 1501 x 1683 km, 47.2° (Epoch: 12 October)

Event Time Altitude Azimuth Distance (km) Brightness Sun altitude
Rises 00:01:24 0° 293° (WNW) 4,764 10.7 -22.9°
Reaches altitude 10° 00:04:28 10° 295° (WNW) 3,802 10.1 -23.1°
Maximum altitude 00:14:14 77° 22° (NNE) 1,672 7.7 -23.7°
Enters shadow 00:24:03 11° 109° (ESE) 3,836 9.3 -24.3°
